Home   Weather   Mo i Rana   Past weeks

Flag for Norway Past Weather in Mo i Rana, Norway — Yesterday and Last 2 Weeks

Now
43 °F

Quite cool.


Feels Like: 38 °F
Forecast: 22 / 35 °F
Wind: 8 mph from Southwest

Location: Nord-Solvaer

Current Time: Jan 22, 2017 at 9:24:18 am

Latest Report: Jan 22, 2017 at 8:00 am


Visibility: N/A

Pressure: 29.88 "Hg

Humidity: 88%

Dew Point: 40 °F

Location of Mo i RanaLocation

Past Weather in Mo i Rana — Graph

°F

Mo i Rana Temperature Yesterday

Maximum temperature yesterday: 46 °F (at 7:00 pm)
Minimum temperature yesterday: 33 °F (at 2:00 pm)
Average temperature yesterday: 39 °F

High & Low Weather Summary for the Past Weeks

 TemperatureHumidityPressure
High46 °F (Jan 18, 3:00 pm)98% (Jan 18, 10:00 am)30.19 "Hg (Jan 18, 10:00 am)
Low30 °F (Jan 14, 2:00 am)56% (Jan 14, 9:00 am)28.61 "Hg (Jan 11, 6:00 pm)
Average38 °F81%29.57 "Hg
* Reported Jan 7 7:00 am — Jan 22 7:00 am, Mo i Rana, Weather by CustomWeather, © 2017

Note: Actual official high and low records may vary slightly from our data, if they occured in-between our weather recording intervals... More about our weather records

Advertising

Mo i Rana Weather History for the Previous 24 Hours

Scroll right to see more
 ConditionsComfort  
Time TempWeatherWind HumidityBarometerVisibility
7:00 am
Sun, Jan 22
43 °FQuite cool.10 mph93%29.88 "HgN/A
6:00 am43 °FQuite cool.7 mph93%29.90 "HgN/A
5:00 am43 °FQuite cool.8 mph92%29.90 "HgN/A
4:00 am43 °FQuite cool.6 mph97%29.92 "HgN/A
3:00 am42 °FQuite cool.7 mph96%29.95 "HgN/A
2:00 am42 °FQuite cool.6 mph96%29.96 "HgN/A
1:00 am43 °FQuite cool.8 mph95%29.97 "HgN/A
12:00 am44 °FQuite cool.8 mph94%29.98 "HgN/A
11:00 pm
Sat, Jan 21
44 °FQuite cool.8 mph93%30.00 "HgN/A
10:00 pm45 °FQuite cool.8 mph92%30.00 "HgN/A
9:00 pm46 °FCool.12 mph85%29.99 "HgN/A
8:00 pm45 °FQuite cool.14 mph92%30.00 "HgN/A
7:00 pm46 °FCool.15 mph89%30.00 "HgN/A
6:00 pm45 °FQuite cool.14 mph95%29.99 "HgN/A
5:00 pm45 °FQuite cool.13 mph94%29.98 "HgN/A
4:00 pm44 °FQuite cool.14 mph97%29.97 "HgN/A
3:00 pm34 °FChilly.2 mph97%30.01 "HgN/A
2:00 pm33 °FChilly.3 mph96%30.05 "HgN/A
1:00 pm33 °FChilly.3 mph94%30.09 "HgN/A
12:00 pm34 °FChilly.3 mph92%30.12 "HgN/A
11:00 am38 °FChilly.1 mph64%30.14 "HgN/A
10:00 am37 °FChilly.2 mph69%30.15 "HgN/A
9:00 am37 °FChilly.2 mph67%30.14 "HgN/A
Weather by CustomWeather, © 2017

See weather overviewHow to use our weather pages